Location: Newark
(53.3333°N, 83.7500°E)
Time: 05:25:41
(UTC+00:00)

Transit 2A Rocket - All Passes

Search period start: 19 November 2019 00:00
Search period end: 29 November 2019 00:00
Orbit: 594 x 909 km, 66.7° (Epoch: 18 November)

Date Brightness Start Highest point End Pass type
(mag) Time Alt. Az. Time Alt. Az. Time Alt. Az.
19 Nov - 01:15:54 10° WNW 01:19:40 29° WSW 01:23:34 10° S visible
19 Nov - 15:56:00 10° S 16:00:24 42° ESE 16:04:35 10° NE night (unlit)
19 Nov - 17:38:40 10° WSW 17:42:59 40° NW 17:47:06 10° NNE night (unlit)
19 Nov - 19:23:48 10° NW 19:26:38 16° NNW 19:29:27 10° NNE night (unlit)
19 Nov - 21:08:12 10° NNW 21:10:52 16° NNE 21:13:33 10° NE visible
19 Nov - 22:50:38 10° NNW 22:54:37 35° NE 22:58:42 10° ESE visible
20 Nov - 00:33:07 10° NW 00:37:17 48° WSW 00:41:37 10° SSE visible
20 Nov - 15:14:10 10° S 15:18:03 26° ESE 15:21:45 10° ENE night (unlit)
20 Nov - 16:55:47 10° SW 17:00:19 58° NW 17:04:39 10° NE night (unlit)
20 Nov - 18:40:27 10° WNW 18:43:43 19° NNW 18:46:54 10° NNE night (unlit)
20 Nov - 20:25:26 10° NNW 20:27:52 15° N 20:30:19 10° NE visible
20 Nov - 22:08:11 10° NNW 22:11:51 26° NNE 22:15:34 10° E visible
20 Nov - 23:50:30 10° NW 23:54:50 78° SW 23:59:19 10° SSE visible
21 Nov - 01:34:37 10° W 01:36:40 13° WSW 01:38:45 10° SW daylight
21 Nov - 14:32:54 10° SSE 14:35:46 16° ESE 14:38:32 10° ENE night (unlit)
21 Nov - 16:13:07 10° SW 16:17:45 89° NW 16:22:09 10° NE night (unlit)
21 Nov - 17:57:09 10° W 18:00:50 24° NNW 18:04:25 10° NNE night (unlit)
21 Nov - 19:42:26 10° NW 19:44:51 14° N 19:47:16 10° NNE night (unlit)
21 Nov - 21:25:42 10° NNW 21:29:00 21° NNE 21:32:19 10° ENE visible
21 Nov - 23:07:58 10° NW 23:12:17 67° NE 23:16:45 10° SE visible
22 Nov - 00:51:06 10° WNW 00:54:26 22° WSW 00:57:53 10° SSW visible
22 Nov - 15:30:42 10° SSW 15:35:15 58° SE 15:39:34 10° NE night (unlit)
22 Nov - 17:13:58 10° W 17:18:02 32° NW 17:21:58 10° NNE night (unlit)
22 Nov - 18:59:14 10° NW 19:01:52 15° N 19:04:27 10° NNE night (unlit)
22 Nov - 20:43:11 10° NNW 20:46:05 17° NNE 20:48:59 10° ENE visible
22 Nov - 22:25:30 10° NNW 22:29:40 44° NE 22:33:56 10° ESE visible
23 Nov - 00:08:09 10° NW 00:12:07 35° WSW 00:16:14 10° S visible
23 Nov - 14:48:37 10° S 14:52:50 35° ESE 14:56:52 10° NE night (unlit)
23 Nov - 16:30:57 10° WSW 16:35:19 45° NW 16:39:31 10° NNE night (unlit)
23 Nov - 18:15:55 10° WNW 18:18:53 17° NNW 18:21:48 10° NNE night (unlit)
23 Nov - 20:00:32 10° NNW 20:03:06 15° N 20:05:41 10° NE night (unlit)
23 Nov - 21:43:02 10° NNW 21:46:56 31° NE 21:50:55 10° E visible
23 Nov - 23:25:27 10° NW 23:29:43 57° SW 23:34:09 10° SSE visible
24 Nov - 14:06:57 10° SSE 14:10:31 22° ESE 14:13:56 10° ENE night (unlit)
24 Nov - 15:48:07 10° SW 15:52:41 68° NW 15:57:02 10° NE night (unlit)
24 Nov - 17:32:35 10° WNW 17:35:58 21° NNW 17:39:17 10° NNE night (unlit)
24 Nov - 19:17:41 10° NNW 19:20:05 14° N 19:22:30 10° NE night (unlit)
24 Nov - 21:00:35 10° NNW 21:04:08 24° NNE 21:07:44 10° E visible
24 Nov - 22:42:52 10° NW 22:47:13 89° NNE 22:51:45 10° SE visible
25 Nov - 00:26:31 10° WNW 00:29:11 16° WSW 00:31:53 10° SSW visible
25 Nov - 13:26:01 10° SE 13:28:16 14° ESE 13:30:28 10° E night (unlit)
25 Nov - 15:05:32 10° SSW 15:10:08 78° SE 15:14:31 10° NE night (unlit)
25 Nov - 16:49:19 10° W 16:53:07 26° NNW 16:56:48 10° NNE night (unlit)
25 Nov - 18:34:38 10° NW 18:37:05 15° N 18:39:32 10° NNE night (unlit)
25 Nov - 20:18:06 10° NNW 20:21:16 19° NNE 20:24:26 10° ENE night (unlit)
25 Nov - 22:00:22 10° NW 22:04:39 58° NE 22:09:05 10° SE visible
25 Nov - 23:43:18 10° WNW 23:46:54 26° WSW 23:50:39 10° S visible
26 Nov - 14:23:14 10° SSW 14:27:40 48° ESE 14:31:54 10° NE night (unlit)
26 Nov - 16:06:11 10° WSW 16:10:20 35° NW 16:14:22 10° NNE night (unlit)
26 Nov - 17:51:23 10° NW 17:54:05 16° NNW 17:56:46 10° NNE night (unlit)
26 Nov - 19:35:32 10° NNW 19:38:19 16° NNE 19:41:06 10° NE night (unlit)
26 Nov - 21:17:54 10° NNW 21:21:59 39° NE 21:26:11 10° ESE visible
26 Nov - 23:00:27 10° NW 23:04:33 41° WSW 23:08:50 10° S visible
27 Nov - 13:41:17 10° S 13:45:17 30° ESE 13:49:08 10° ENE visible
27 Nov - 15:23:14 10° WSW 15:27:39 51° NW 15:31:55 10° NE night (unlit)
27 Nov - 17:08:03 10° WNW 17:11:08 18° NNW 17:14:11 10° NNE night (unlit)
27 Nov - 18:52:49 10° NNW 18:55:20 15° N 18:57:49 10° NE night (unlit)
27 Nov - 20:35:27 10° NNW 20:39:14 28° NNE 20:43:06 10° E night (unlit)
27 Nov - 22:17:47 10° NW 22:22:07 68° SW 22:26:38 10° SSE visible
28 Nov - 00:02:32 10° W 00:03:52 11° WSW 00:05:13 10° SW visible
28 Nov - 12:59:49 10° SSE 13:02:59 19° ESE 13:06:04 10° ENE visible
28 Nov - 14:40:29 10° SW 14:45:03 78° NW 14:49:25 10° NE visible
28 Nov - 16:24:44 10° WNW 16:28:13 22° NNW 16:31:40 10° NNE night (unlit)
28 Nov - 18:09:55 10° NW 18:12:19 14° N 18:14:42 10° NNE night (unlit)
28 Nov - 19:52:59 10° NNW 19:56:24 22° NNE 19:59:53 10° ENE night (unlit)
28 Nov - 21:35:14 10° NW 21:39:35 77° NE 21:44:08 10° SE night (unlit)
28 Nov - 23:18:34 10° WNW 23:21:39 19° WSW 23:24:51 10° SSW visible
